[[{"header":{"parameterUnit":"m.s-1","parameterCategory":1,"la1":30.2991,"la2":30.254,"lo1":-89.0895,"lo2":-89.0444,"dy":0.0017,"dx":0.0017,"nx":28,"ny":28,"refTime":"2026-02-17T09:00:00:Z","depth":0,"parameterNumber":2,"parameterNumberName":"U-component_of_WINDS"},"data":[0,0,0,0,0,0,0,0,0,0,0,0,0,0,0,0,0,0,0,0,0,0,0,0,0,0,0,0,0,0,0,0,0,0,0,0,0,0,0,0,0,0,0,0,0,0,0,0,0,0,0,0,0,0,0,0,0,0,0.9191,0.919,0,0.9128,0.9127,0.9126,0.9088,0.9088,0.9088,0.9088,0.9024,0.9022,0.9021,0,0,0,0,0,0,0,0,0,0,0,0,0,0.9281,0.9279,0.9191,0.919,0.9189,0.9128,0.9127,0.9126,0.9088,0.9088,0.9088,0.9088,0.9024,0.9022,0.902,0,0,0,0,0,0,0,0,0,0,0,0,0,0.9232,0.9279,0.9191,0.9163,0.916,0.9128,0.9127,0.9126,0.9088,0.9088,0.9088,0.9088,0.9025,0.9022,0.902,0.9011,0,0,0.9013,0.9012,0,0,0,0,0,0,0,0,0.9235,0.9229,0.9168,0.9165,0.9161,0.9116,0.9135,0.9088,0.9088,0.9116,0.9088,0.9087,0.9054,0.905,0.9038,0.9008,0.9006,0.9013,0.9012,0.9011,0.901,0,0,0,0,0,0,0,0.9238,0.9231,0.9166,0.9167,0.9163,0.9154,0.9147,0.9126,0.9087,0.9113,0.911,0.9103,0.9053,0.9041,0.9037,0.9005,0.9013,0.9011,0.901,0.9009,0.8966,0.8967,0,0,0,0,0,0,0.9246,0.9235,0.9168,0.9164,0.9198,0.9153,0.9145,0.9131,0.9087,0.9081,0.9104,0.9102,0.9045,0.9039,0.9034,0.9022,0.9011,0.9008,0.9007,0.8966,0.8966,0.8967,0,0,0,0,0,0,0.9248,0.9241,0.9171,0.9199,0.9189,0.9152,0.9136,0.913,0.9118,0.908,0.9073,0.9098,0.9044,0.9038,0.9018,0.9019,0.9007,0.9005,0.8966,0.8966,0.8967,0.8998,0,0,0,0,0,0,0.9251,0.9241,0.9237,0.9199,0.9188,0.9155,0.9136,0.9128,0.9114,0.9111,0.9074,0.9067,0.9044,0.9021,0.9016,0.9016,0.9003,0.8966,0.8966,0.8966,0.8996,0.8999,0.9001,0,0,0,0,0,0.9254,0.9248,0.9237,0.9229,0.9181,0.9155,0.9148,0.9121,0.9114,0.911,0.9086,0.9068,0.902,0.902,0.9013,0.9013,0.8965,0.8966,0.8966,0.8995,0.8998,0.9001,0,0,0,0,0,0,0.9287,0.9242,0.923,0.9211,0.9187,0.9148,0.9142,0.9126,0.9103,0.9101,0.9069,0.9061,0.9045,0.9027,0.9027,0.9003,0.8991,0.899,0.9015,0.9018,0.9021,0.9025,0.9002,0,0,0,0,0,0.9293,0.9274,0.9236,0.9223,0.9212,0.9179,0.9167,0.9148,0.9122,0.9112,0.9086,0.9062,0.9042,0.9029,0.9008,0.8994,0.8986,0.899,0.8993,0.8995,0.8995,0.8988,0.899,0.8969,0.8969,0.8969,0,0,0.9303,0.9276,0.9266,0.9229,0.9208,0.9191,0.9171,0.9153,0.914,0.9109,0.9089,0.907,0.9041,0.9024,0.9016,0.9009,0.8999,0.8996,0.8998,0.8996,0.8988,0.8991,0.8992,0.8969,0.8969,0.8969,0,0,0.9313,0.929,0.9278,0.9258,0.9227,0.9205,0.9203,0.9167,0.9153,0.9133,0.911,0.9094,0.9059,0.904,0.9026,0.9031,0.9014,0.9025,0.9038,0.9032,0.9033,0.9035,0.9037,0.9039,0.9025,0.9025,0.9025,0,0.9329,0.9301,0.9273,0.9257,0.9242,0.9214,0.9202,0.9184,0.9148,0.9138,0.9131,0.9088,0.9066,0.9046,0.9047,0.9036,0.9033,0.9029,0.9035,0.9036,0.9037,0.9039,0.904,0.9027,0.9026,0.9026,0.9026,0,0.9324,0.9306,0.9299,0.9266,0.925,0.9236,0.9207,0.9194,0.9178,0.9158,0.9138,0.9112,0.9085,0.9079,0.9062,0.9057,0.9053,0.9041,0.9028,0.9041,0.9043,0.9043,0.9029,0.9028,0.9028,0.9027,0,0,0.9351,0.9304,0.9302,0.9287,0.9252,0.9238,0.9223,0.9198,0.9189,0.9165,0.9153,0.9125,0.9114,0.9098,0.9079,0.9073,0.9081,0.9062,0.9061,0.9067,0.9074,0.9084,0.9085,0.907,0.907,0.907,0.9077,0,0.9356,0.9328,0.9304,0.9285,0.9268,0.9243,0.923,0.9208,0.9189,0.9173,0.9152,0.9134,0.912,0.911,0.9103,0.9081,0.9082,0.908,0.9059,0.9058,0.9067,0.9086,0.9095,0.9103,0.9077,0.9077,0.9077,0,0.9358,0.9336,0.9316,0.9285,0.9277,0.9266,0.9242,0.9226,0.9202,0.9188,0.9172,0.9152,0.9137,0.9127,0.9105,0.9105,0.9095,0.9083,0.9083,0.908,0.9069,0.9084,0.9105,0.9107,0.9078,0.9078,0.9078,0,0.9381,0.9347,0.9331,0.9319,0.9282,0.9275,0.9259,0.9234,0.9221,0.92,0.9192,0.9169,0.9157,0.9141,0.9117,0.9111,0.9099,0.9086,0.9088,0.9089,0.9086,0.9087,0.9107,0.908,0.908,0.908,0.908,0,0.9389,0.9378,0.9341,0.9331,0.9319,0.9291,0.928,0.9262,0.924,0.9227,0.9203,0.9192,0.916,0.9145,0.9126,0.9112,0.9107,0.9097,0.9092,0.9099,0.91,0.9092,0.9091,0.908,0.908,0.908,0.908,0,0.9412,0.9386,0.9368,0.9334,0.9326,0.9318,0.929,0.928,0.9261,0.9245,0.924,0.921,0.9191,0.9166,0.9139,0.9126,0.9115,0.9107,0.9124,0.9121,0.9125,0.9125,0.914,0.9141,0.9113,0.9114,0.9114,0,0.9418,0.9409,0.9376,0.9366,0.9351,0.9335,0.9322,0.9295,0.9283,0.9255,0.9249,0.9228,0.921,0.9182,0.9158,0.9138,0.913,0.9137,0.9127,0.9135,0.9131,0.9132,0.9131,0.9139,0.9139,0.914,0.914,0,0.9433,0.9422,0.9404,0.9383,0.9368,0.935,0.9331,0.9324,0.9293,0.9281,0.9262,0.9248,0.9222,0.9202,0.9179,0.9164,0.9147,0.9144,0.9143,0.915,0.916,0.9156,0.9131,0.9143,0.9143,0.9143,0.9142,0.9142,0.9449,0.944,0.9416,0.9398,0.9381,0.9364,0.9353,0.9334,0.9317,0.9294,0.9279,0.9261,0.9238,0.9206,0.9191,0.9177,0.9171,0.917,0.917,0.917,0.9173,0.9163,0.9173,0.9173,0.9173,0.9173,0.9173,0,0.9463,0.9447,0.943,0.9405,0.9391,0.9377,0.9355,0.9345,0.9329,0.9309,0.9293,0.9272,0.9254,0.9229,0.9209,0.9203,0.9195,0.9199,0.9199,0.9196,0.918,0.9182,0.9206,0.9206,0.9206,0.9206,0.9206,0.9206,0.9469,0.9454,0.9441,0.9418,0.9402,0.9384,0.9373,0.9358,0.9342,0.932,0.9305,0.9289,0.9268,0.9247,0.923,0.9223,0.9217,0.9223,0.9215,0.92,0.9197,0.9194,0.9196,0.9222,0.9222,0.9232,0.9232,0.9232]},{"header":{"parameterUnit":"m.s-1","parameterCategory":1,"la1":30.2991,"la2":30.254,"lo1":-89.0895,"lo2":-89.0444,"dy":0.0017,"dx":0.0017,"nx":28,"ny":28,"refTime":"2026-02-17T09:00:00:Z","depth":0,"parameterNumber":3,"parameterNumberName":"V-component_of_WINDS"},"data":[0,0,0,0,0,0,0,0,0,0,0,0,0,0,0,0,0,0,0,0,0,0,0,0,0,0,0,0,0,0,0,0,0,0,0,0,0,0,0,0,0,0,0,0,0,0,0,0,0,0,0,0,0,0,0,0,0,0,3.352,3.3522,0,3.37,3.3702,3.3704,3.3776,3.3776,3.3775,3.3775,3.3963,3.3968,3.3974,0,0,0,0,0,0,0,0,0,0,0,0,0,3.3244,3.3249,3.352,3.3522,3.3525,3.37,3.3702,3.3705,3.3776,3.3776,3.3775,3.3775,3.3961,3.3968,3.3974,0,0,0,0,0,0,0,0,0,0,0,0,0,3.3388,3.325,3.352,3.3581,3.3589,3.3699,3.3702,3.3705,3.3777,3.3776,3.3775,3.3775,3.3959,3.3967,3.3975,3.4039,0,0,3.4,3.4003,0,0,0,0,0,0,0,0,3.338,3.3398,3.357,3.3577,3.3586,3.3715,3.3674,3.3817,3.3777,3.3705,3.3775,3.3774,3.3881,3.3896,3.3931,3.4047,3.4055,3.4,3.4005,3.4009,3.4011,0,0,0,0,0,0,0,3.337,3.3391,3.3592,3.3573,3.3582,3.3602,3.3622,3.3701,3.3795,3.3712,3.3717,3.3737,3.3885,3.3923,3.3936,3.4058,3.4,3.4007,3.4012,3.4016,3.4239,3.424,0,0,0,0,0,0,3.3349,3.3382,3.3586,3.3597,3.3479,3.3607,3.3629,3.3674,3.3794,3.3812,3.3738,3.374,3.3909,3.3926,3.3943,3.4028,3.4009,3.4016,3.4021,3.4238,3.4239,3.424,0,0,0,0,0,0,3.3343,3.3366,3.3579,3.3491,3.352,3.3613,3.3663,3.3678,3.3716,3.3814,3.3831,3.3759,3.391,3.3931,3.4015,3.4035,3.402,3.4028,3.4237,3.4238,3.424,3.4195,0,0,0,0,0,0,3.3334,3.3364,3.3387,3.3491,3.3524,3.3646,3.3664,3.3682,3.3729,3.3734,3.3838,3.3855,3.3911,3.4002,3.4023,3.4046,3.4034,3.4235,3.4237,3.4239,3.4195,3.4195,3.4195,0,0,0,0,0,3.3324,3.3368,3.3388,3.3412,3.3555,3.3647,3.3666,3.3728,3.373,3.3756,3.382,3.3852,3.4029,3.401,3.4034,3.406,3.4234,3.4237,3.4239,3.4196,3.4195,3.4195,0,0,0,0,0,0,3.3265,3.3383,3.3406,3.3485,3.3555,3.3658,3.3693,3.3725,3.3797,3.3799,3.3874,3.3897,3.3975,3.4025,3.4002,3.4129,3.4134,3.4141,3.4093,3.4094,3.4093,3.408,3.4041,0,0,0,0,0,3.3261,3.3324,3.3424,3.3483,3.3517,3.3599,3.3641,3.3683,3.3759,3.379,3.3859,3.3933,3.4006,3.4052,3.4125,3.4203,3.4228,3.4233,3.4232,3.4231,3.4237,3.4285,3.4289,3.4248,3.4248,3.4248,0,0,3.3254,3.3326,3.3361,3.3473,3.3533,3.3598,3.3623,3.3691,3.3741,3.38,3.3883,3.3937,3.4025,3.4106,3.4146,3.4151,3.4254,3.4235,3.4233,3.424,3.4288,3.4292,3.4295,3.425,3.4249,3.4249,0,0,3.3274,3.3333,3.3391,3.345,3.3539,3.3594,3.3607,3.3707,3.3744,3.3828,3.3875,3.3936,3.4059,3.4121,3.4168,3.4213,3.4246,3.4235,3.4234,3.428,3.4283,3.4286,3.4305,3.431,3.424,3.424,3.424,0,3.3254,3.3353,3.3416,3.3482,3.3531,3.3587,3.3647,3.3702,3.3811,3.3844,3.3848,3.4005,3.4068,3.4166,3.4177,3.4213,3.4233,3.4224,3.4277,3.4281,3.4285,3.4304,3.431,3.4238,3.4238,3.4238,3.4238,0,3.3325,3.3393,3.3428,3.3531,3.3585,3.3647,3.3722,3.3769,3.3806,3.386,3.3947,3.4025,3.4114,3.4141,3.4178,3.4245,3.4246,3.4262,3.4269,3.4286,3.4305,3.4313,3.4235,3.4236,3.4236,3.4237,0,0,3.3313,3.3451,3.3463,3.3512,3.3615,3.367,3.3736,3.3823,3.3863,3.3936,3.3995,3.4098,3.4115,3.4169,3.4214,3.4253,3.4287,3.4266,3.4269,3.4269,3.4369,3.4357,3.4364,3.4309,3.4311,3.4312,3.4362,0,3.3348,3.3467,3.3527,3.3621,3.3686,3.3741,3.3799,3.387,3.3923,3.3987,3.4046,3.4119,3.4134,3.4168,3.4209,3.4274,3.4309,3.4271,3.4367,3.437,3.4345,3.4373,3.4361,3.4404,3.437,3.4371,3.4372,0,3.3405,3.3478,3.3578,3.3676,3.3706,3.3756,3.3842,3.3902,3.3985,3.4021,3.4081,3.4125,3.4199,3.42,3.4304,3.4277,3.432,3.4358,3.4361,3.4374,3.4373,3.4389,3.4419,3.4427,3.4384,3.4383,3.4382,0,3.3389,3.3512,3.3589,3.3628,3.3744,3.3779,3.3829,3.391,3.3959,3.4035,3.4068,3.4151,3.4198,3.4262,3.4329,3.4322,3.4427,3.4433,3.4461,3.446,3.4482,3.448,3.4522,3.4506,3.4506,3.4506,3.4506,0,3.3424,3.3483,3.3583,3.363,3.37,3.3769,3.3837,3.3891,3.3964,3.4024,3.4076,3.4132,3.4216,3.4283,3.4335,3.4415,3.4435,3.4468,3.4482,3.4465,3.4461,3.4495,3.4494,3.4508,3.4507,3.4507,3.4507,0,3.3418,3.3486,3.3574,3.3676,3.3704,3.375,3.3839,3.3888,3.3944,3.402,3.4042,3.413,3.4212,3.4284,3.4392,3.4428,3.451,3.4526,3.4482,3.449,3.4515,3.4513,3.4582,3.4596,3.4568,3.4568,3.4569,0,3.3436,3.3483,3.3591,3.3634,3.3683,3.3753,3.3804,3.3875,3.3926,3.4024,3.4062,3.4147,3.422,3.4348,3.4423,3.4507,3.4527,3.4545,3.454,3.4522,3.453,3.4527,3.4533,3.4545,3.4545,3.4545,3.4545,0,3.3461,3.3494,3.3564,3.3647,3.3706,3.3775,3.3845,3.3879,3.3963,3.4018,3.4102,3.4158,3.4269,3.4354,3.4447,3.4501,3.4538,3.4546,3.4558,3.4542,3.4515,3.4532,3.4484,3.4544,3.4545,3.4545,3.4545,3.4545,3.347,3.3515,3.3599,3.3676,3.3737,3.3802,3.3854,3.3916,3.3987,3.4082,3.412,3.4206,3.429,3.4418,3.4472,3.4542,3.4549,3.4564,3.4569,3.4572,3.4571,3.4502,3.4559,3.4559,3.4559,3.4559,3.4559,0,3.35,3.3557,3.3627,3.3724,3.3786,3.3814,3.3894,3.3945,3.4019,3.4094,3.4164,3.4262,3.4345,3.4427,3.4515,3.4556,3.4575,3.4577,3.4576,3.4588,3.4558,3.4541,3.456,3.456,3.456,3.456,3.456,3.456,3.3523,3.3602,3.3645,3.3756,3.3812,3.3897,3.394,3.4002,3.4062,3.4169,3.4238,3.429,3.4369,3.4463,3.4542,3.4564,3.4595,3.4592,3.4619,3.4591,3.459,3.4589,3.4573,3.4598,3.4598,3.4644,3.4644,3.4644]}]]